PLATFORM,ARGOS ID,DATE(YYYY/MM/DD HH:MI:SS),LATITUDE(degree_north),LONGITUDE(degree_east),TEMP LEVEL0 (Celsius degree),EWCT LEVEL1 (meter/second),NSCT LEVEL1 (meter/second),QC,SVP_RCBN_Number,SVP_GNRL_ImmPercent,SVP_GNRL_BattVolt
61440,72508,2007/08/12 17:00:13,43.0409,6.9287,22.52,,,00111199,1,100,12.2
61440,72508,2007/08/12 18:00:40,43.0360,6.9247,22.44,-0.122768,-0.205023,00111100,1,100,12.2
61440,72508,2007/08/12 20:00:10,43.0268,6.9158,22.36,-0.138179,-0.194703,00111100,1,100,12.2
61440,72508,2007/08/12 21:00:40,43.0222,6.9102,22.36,-0.171733,-0.192268,00111100,1,100,12.2
61440,72508,2007/08/12 22:00:16,43.0185,6.9043,22.28,-0.183665,-0.156975,00111100,4,100,12.2
61440,72508,2007/08/12 23:00:10,43.0144,6.8968,22.2,-0.232303,-0.173063,00111100,1,95,12.2
61440,72508,2007/08/13 00:01:10,43.0107,6.8889,22.28,-0.24028,-0.153353,00111100,3,88,12.2
61440,72508,2007/08/13 01:00:10,43.0075,6.8822,22.28,-0.210689,-0.137117,00111100,1,88,12.2
61440,72508,2007/08/13 02:00:17,43.0047,6.8761,22.36,-0.188259,-0.117743,00111100,4,71,12.1
61440,72508,2007/08/13 03:00:08,43.0014,6.8712,22.36,-0.151898,-0.13938,00111100,3,87,12.2
61440,72508,2007/08/13 04:00:40,42.9974,6.8676,22.36,-0.110339,-0.167029,00111100,3,85,12.2
61440,72508,2007/08/13 05:00:10,42.9929,6.8647,22.36,-0.0904276,-0.191157,00111100,4,100,12.2
61440,72508,2007/08/13 06:00:16,42.9883,6.8611,22.44,-0.111134,-0.19344,00111100,4,100,12.2
61440,72508,2007/08/13 07:00:10,42.9833,6.8567,22.44,-0.136284,-0.210946,00111100,3,93,12.2
61440,72508,2007/08/13 08:00:40,42.9790,6.8525,22.68,-0.128799,-0.179601,00111100,3,12,12.2
61440,72508,2007/08/13 09:00:10,42.9753,6.8485,22.84,-0.124728,-0.157127,00111100,6,1,12.2
61440,72508,2007/08/13 10:00:11,42.9711,6.8431,22.68,-0.166933,-0.176814,00111100,4,14,12.2
61440,72508,2007/08/13 11:00:16,42.9664,6.8367,22.76,-0.197627,-0.197629,00111100,1,19,12.2
61440,72508,2007/08/13 12:00:40,42.9624,6.8306,22.84,-0.187376,-0.167301,00111100,3,3,12.2
61440,72508,2007/08/13 13:00:10,42.9588,6.8241,23,-0.202683,-0.152839,00111100,3,9,12.1
61440,72508,2007/08/13 13:01:14,42.9753,6.8485,22.84,42.4406,39.0796,00144400,1,1,12.2
61440,72508,2007/08/13 14:00:16,42.9552,6.8186,22.92,-0.93971,-0.860164,00144400,3,17,12.2
61440,72508,2007/08/13 15:00:35,42.9516,6.8136,23,-0.153799,-0.150752,00111100,4,9,12.2
61440,72508,2007/08/13 16:00:16,42.9478,6.8085,23,-0.158539,-0.160806,00111100,5,34,12.2
61440,72508,2007/08/13 17:00:11,42.9451,6.8038,23,-0.145536,-0.113806,00111100,1,1,12.2
61440,72508,2007/08/13 18:00:40,42.9421,6.7993,23,-0.138037,-0.125261,00111100,4,39,12.2
61440,72508,2007/08/13 19:00:06,42.9385,6.7954,22.92,-0.121746,-0.15296,00111100,6,9,12.2
61440,72508,2007/08/13 20:00:10,42.9342,6.7922,22.92,-0.0988408,-0.180764,00111100,3,25,12.2
61440,72508,2007/08/13 21:00:40,42.9283,6.7882,22.84,-0.122666,-0.246228,00111100,3,47,12.2
61440,72508,2007/08/13 22:00:11,42.9225,6.7846,22.84,-0.112224,-0.24603,00111100,3,49,12.2
61440,72508,2007/08/13 23:00:16,42.9163,6.7797,22.76,-0.151308,-0.260492,00111100,1,69,12.2
61440,72508,2007/08/14 00:00:40,42.9104,6.7738,22.68,-0.181232,-0.246564,00111100,4,80,12.1
61440,72508,2007/08/14 01:00:10,42.9044,6.7666,22.68,-0.22451,-0.254511,00111100,6,95,12.2
61440,72508,2007/08/14 02:00:39,42.8992,6.7594,22.68,-0.22086,-0.21697,00111100,3,90,12.2
61440,72508,2007/08/14 03:00:37,42.8962,6.7515,22.68,-0.24442,-0.126245,00111100,6,85,12.2
61440,72508,2007/08/14 04:00:10,42.8933,6.7458,22.6,-0.177588,-0.122885,00111100,6,92,12.2
61440,72508,2007/08/14 05:00:10,42.8905,6.7402,22.6,-0.173164,-0.117752,00111100,4,12,12.2
61440,72508,2007/08/14 06:00:40,42.8880,6.7340,22.6,-0.190132,-0.104262,00111100,4,6,12.2
61440,72508,2007/08/14 07:00:16,42.8856,6.7280,22.68,-0.186778,-0.101599,00111100,6,0,12.2
61440,72508,2007/08/14 08:00:11,42.8828,6.7218,22.68,-0.191984,-0.117901,00111100,4,0,12.2
61440,72508,2007/08/14 09:00:40,42.8803,6.7169,22.84,-0.150307,-0.104278,00111100,7,0,12.2
61440,72508,2007/08/14 10:00:11,42.8769,6.7122,23.24,-0.146514,-0.144114,00111100,5,0,12.2
61440,72508,2007/08/14 11:00:10,42.8735,6.7079,23.24,-0.133002,-0.142985,00111100,4,0,12.1
61440,72508,2007/08/14 12:00:40,42.8697,6.7038,23.32,-0.125733,-0.158433,00111100,3,4,12.2
61440,72508,2007/08/14 13:00:10,42.8662,6.6987,23.32,-0.159028,-0.148369,00111100,1,23,12.2
61440,72508,2007/08/14 14:00:10,42.8630,6.6937,23.32,-0.15461,-0.134514,00111100,3,68,12.2
61440,72508,2007/08/14 15:00:40,42.8591,6.6891,23.24,-0.141066,-0.162574,00111100,1,93,12.2
61440,72508,2007/08/14 16:00:11,42.8551,6.6843,23.16,-0.149631,-0.169487,00111100,1,100,12.2
61440,72508,2007/08/14 17:00:40,42.8512,6.6794,23.08,-0.150307,-0.162598,00111100,4,96,12.2
61440,72508,2007/08/14 18:00:11,42.8476,6.6744,23,-0.155866,-0.152519,00111100,1,100,12.2
61440,72508,2007/08/14 19:00:16,42.8441,6.6693,22.92,-0.157484,-0.146875,00111100,3,100,12.2
61440,72508,2007/08/14 20:00:40,42.8402,6.6640,22.92,-0.162802,-0.162793,00111100,5,100,12.2
61440,72508,2007/08/14 21:00:10,42.8365,6.6581,22.92,-0.183973,-0.156771,00111100,6,100,12.2
61440,72508,2007/08/14 22:00:16,42.8337,6.6518,22.92,-0.194485,-0.117447,00111100,5,95,12.1
61440,72508,2007/08/14 23:00:40,42.8316,6.6458,22.92,-0.184304,-0.0876444,00111100,4,93,12.2
61440,72508,2007/08/15 00:00:11,42.8290,6.6397,22.92,-0.190157,-0.110118,00111100,4,11,12.2
61440,72508,2007/08/15 01:00:10,42.8268,6.6332,22.92,-0.201049,-0.0924486,00111100,1,14,12.2
61440,72508,2007/08/15 02:00:40,42.8241,6.6264,23,-0.208532,-0.112486,00111100,4,0,12.2
61440,72508,2007/08/15 03:00:10,42.8220,6.6201,23,-0.196446,-0.0889562,00111100,4,0,12.2
61440,72508,2007/08/15 04:00:16,42.8200,6.6134,23,-0.206833,-0.0838716,00111100,7,3,12.2
61440,72508,2007/08/15 05:00:16,42.8191,6.6077,23,-0.176256,-0.0378042,00111100,5,23,12.1
61440,72508,2007/08/15 06:00:40,42.8181,6.6025,22.92,-0.15973,-0.0417259,00111100,5,15,12.2
61440,72508,2007/08/15 07:00:10,42.8170,6.5982,23,-0.134082,-0.0465919,00111100,6,4,12.2
61440,72508,2007/08/15 08:00:06,42.8153,6.5945,23,-0.114539,-0.0714835,00111100,6,15,12.2
61440,72508,2007/08/15 09:00:40,42.8138,6.5907,23.16,-0.116405,-0.0624125,00111100,3,12,12.1
61440,72508,2007/08/15 10:00:09,42.8122,6.5870,23.4,-0.115405,-0.067784,00111100,5,1,12.2
61440,72508,2007/08/15 11:00:40,42.8099,6.5831,23.64,-0.119567,-0.0957727,00111100,1,19,12.2
61440,72508,2007/08/15 12:00:16,42.8068,6.5784,23.64,-0.146309,-0.131065,00111100,5,15,12.2
61440,72508,2007/08/15 13:00:11,42.8033,6.5725,23.88,-0.182694,-0.147186,00111100,3,41,12.2
61440,72508,2007/08/15 14:00:40,42.8000,6.5658,23.96,-0.205522,-0.137468,00111100,5,61,12.2
61440,72508,2007/08/15 15:00:10,42.7973,6.5585,23.96,-0.227628,-0.114327,00111100,1,42,12.2
61440,72508,2007/08/15 16:00:10,42.7954,6.5503,23.88,-0.253561,-0.0797788,00111100,1,69,12.1
61440,72508,2007/08/15 17:00:40,42.7942,6.5424,23.88,-0.242266,-0.0499689,00111100,3,95,12.2
61440,72508,2007/08/15 18:00:16,42.7941,6.5349,23.8,-0.233472,-0.00422691,00111100,1,100,12.2
61440,72508,2007/08/15 20:00:39,42.7954,6.5212,23.72,-0.211142,0.0272051,00111100,3,100,12.1
61440,72508,2007/08/15 21:00:11,42.7957,6.5154,23.64,-0.180754,0.0126952,00111100,4,92,12.2
61440,72508,2007/08/15 22:00:10,42.7964,6.5098,23.56,-0.173212,0.0294002,00111100,4,92,12.2
61440,72508,2007/08/15 23:00:40,42.7967,6.5047,23.48,-0.156399,0.0124926,00111100,5,98,12.1
61440,72508,2007/08/16 00:00:11,42.7963,6.5006,23.48,-0.12781,-0.016932,00111100,1,38,12.2
61440,72508,2007/08/16 01:00:16,42.7953,6.4957,23.48,-0.151308,-0.0419302,00111100,4,12,12.1
61440,72508,2007/08/16 02:00:40,42.7938,6.4910,23.4,-0.144371,-0.0625643,00111100,1,73,12.1
61440,72508,2007/08/16 03:00:10,42.7920,6.4852,23.4,-0.180855,-0.0762107,00111100,3,79,12.1
61440,72508,2007/08/16 04:00:11,42.7905,6.4780,23.32,-0.222577,-0.0629605,00111100,7,96,12.1
61440,72508,2007/08/16 05:00:10,42.7896,6.4704,23.32,-0.235073,-0.0377966,00111100,4,100,12.1
61440,72508,2007/08/16 06:00:40,42.7890,6.4633,23.32,-0.217732,-0.0249822,00111100,1,100,12.1
61440,72508,2007/08/16 07:00:16,42.7885,6.4558,23.24,-0.233472,-0.0211327,00111100,1,100,12.1
61440,72508,2007/08/16 08:00:16,42.7886,6.4480,23.32,-0.241192,0.00419835,00111100,1,100,12.1
61440,72508,2007/08/16 09:01:10,42.7888,6.4402,23.4,-0.237628,0.00827263,00111100,1,100,12.1
61440,72508,2007/08/16 10:00:11,42.7890,6.4326,23.48,-0.238924,0.00853666,00111100,1,100,12.1
61440,72508,2007/08/16 11:00:11,42.7897,6.4248,23.64,-0.241192,0.0293888,00111100,1,100,12.1
61440,72508,2007/08/16 12:01:10,42.7903,6.4171,23.72,-0.234261,0.0247845,00111100,1,100,12.1
61440,72508,2007/08/16 13:01:10,42.7908,6.4097,23.88,-0.228823,0.0209924,00111100,1,100,12.1
61440,72508,2007/08/16 14:00:17,42.7908,6.4025,23.88,-0.225966,0,00111100,1,100,12.1
61440,72508,2007/08/16 15:00:22,42.7908,6.3958,23.88,-0.206891,0,00111100,1,100,12.1
61440,72508,2007/08/16 16:01:04,42.7906,6.3890,23.8,-0.207845,-0.00830016,00111100,5,100,12.1
61440,72508,2007/08/16 17:00:28,42.7900,6.3821,23.72,-0.215518,-0.0254453,00111100,1,100,12.1
61440,72508,2007/08/16 18:00:17,42.7889,6.3753,23.72,-0.210915,-0.0463241,00111100,3,100,12.1
61440,72508,2007/08/16 19:00:13,42.7882,6.3689,23.64,-0.198121,-0.0294211,00111100,1,100,12.1
61440,72508,2007/08/16 20:01:00,42.7861,6.3619,23.48,-0.213665,-0.0870272,00111100,1,100,12.1
61440,72508,2007/08/16 21:00:12,42.7842,6.3548,23.48,-0.222514,-0.0808421,00111100,4,100,12.1
61440,72508,2007/08/16 22:00:22,42.7823,6.3463,23.4,-0.26211,-0.0795408,00111100,4,100,12.1
61440,72508,2007/08/16 23:01:07,42.7806,6.3377,23.32,-0.262647,-0.0704827,00111100,1,100,12.1
61440,72508,2007/08/17 00:00:40,42.7790,6.3283,23.24,-0.292864,-0.0676716,00111100,3,100,12.1
61440,72508,2007/08/17 01:00:22,42.7778,6.3184,23.24,-0.307667,-0.050625,00111100,1,100,12.1
61440,72508,2007/08/17 02:00:22,42.7770,6.3096,23.16,-0.272114,-0.0335807,00111100,1,100,12.1
61440,72508,2007/08/17 03:00:35,42.7767,6.3010,23,-0.264973,-0.0125473,00111100,1,100,12.1
61440,72508,2007/08/17 04:00:14,42.7760,6.2927,23,-0.258159,-0.029555,00111100,4,100,12.1
61440,72508,2007/08/17 05:00:10,42.7744,6.2860,23,-0.207408,-0.0672337,00111100,1,100,12.1
61440,72508,2007/08/17 07:00:16,42.7698,6.2720,22.92,-0.216274,-0.0964558,00111100,4,100,12.1
61440,72508,2007/08/17 08:00:10,42.7671,6.2656,22.92,-0.198232,-0.113508,00111100,1,100,12.1
61440,72508,2007/08/17 09:00:39,42.7645,6.2586,22.84,-0.214725,-0.108245,00111100,3,100,12.1
61440,72508,2007/08/17 11:00:10,42.7596,6.2444,22.84,-0.220435,-0.103231,00111100,1,100,12.1
61440,72508,2007/08/17 20:00:16,42.7367,6.2054,21.72,-0.133971,-0.106735,00111100,1,100,12.1
61440,72508,2007/08/17 21:00:16,42.7339,6.2003,21.64,-0.157703,-0.117452,00111100,1,100,12.1
61440,72508,2007/08/17 22:01:04,42.7312,6.1951,21.72,-0.158679,-0.111762,00111100,1,100,12.1
61440,72508,2007/08/17 23:00:28,42.7287,6.1903,21.8,-0.149925,-0.105918,00111100,1,100,12.1
61440,72508,2007/08/18 00:00:17,42.7263,6.1856,21.72,-0.145779,-0.100969,00111100,3,100,12.1
61440,72508,2007/08/18 01:00:35,42.7244,6.1799,21.8,-0.175379,-0.0792903,00111100,4,100,12.1
61440,72508,2007/08/18 02:01:40,42.7232,6.1741,21.8,-0.176167,-0.0494346,00111100,4,100,12.1
61440,72508,2007/08/18 03:00:22,42.7219,6.1697,21.8,-0.13907,-0.0557275,00111100,1,100,12
61440,72508,2007/08/18 04:00:11,42.7206,6.1661,21.8,-0.111661,-0.054686,00111100,4,100,12.1
61440,72508,2007/08/18 05:00:16,42.7186,6.1629,21.8,-0.0988134,-0.0837566,00111100,5,100,12.1
61440,72508,2007/08/18 06:01:10,42.7165,6.1591,21.72,-0.115767,-0.0867623,00111100,3,100,12.1
61440,72508,2007/08/18 07:00:16,42.7151,6.1552,21.64,-0.122433,-0.0596015,00111100,5,100,12.1
61440,72508,2007/08/18 08:00:17,42.7129,6.1521,21.4,-0.0958318,-0.0922263,00111100,3,100,12.1
61440,72508,2007/08/18 09:01:34,42.8571,6.1228,21.4,-0.887044,5.92691,00144400,6,100,12.1
61440,72508,2007/08/18 10:00:28,42.9726,6.1402,21.24,0.548093,4.94984,00144400,4,100,12.1
61440,72508,2007/08/18 11:01:34,42.7057,6.1426,21.08,0.0728769,-11.0128,00144400,3,100,12.1
61440,72508,2007/08/18 12:00:11,42.7029,6.1399,21,-0.0854599,-0.120163,00111100,3,100,12.1
61440,72508,2007/08/18 13:00:16,42.6998,6.1372,20.92,-0.0833738,-0.129784,00111100,1,100,12.1
61440,72508,2007/08/18 14:01:34,42.6970,6.1335,21,-0.111985,-0.114892,00111100,5,100,12
61440,72508,2007/08/18 15:00:09,42.6941,6.1297,21.08,-0.120345,-0.124508,00111100,1,100,12.1
61440,72508,2007/08/18 16:00:22,42.6909,6.1255,21.16,-0.129405,-0.133655,00111100,1,100,12.1
61440,72508,2007/08/18 17:00:11,42.6882,6.1220,21.16,-0.108559,-0.11352,00111100,6,100,12.1
61440,72508,2007/08/18 18:00:54,42.6854,6.1182,21.24,-0.116117,-0.115974,00111100,3,100,12.1
61440,72508,2007/08/18 19:00:16,42.6824,6.1149,21.16,-0.103131,-0.127078,00111100,3,100,12.1
61440,72508,2007/08/18 20:00:16,42.6805,6.1120,21.16,-0.089674,-0.07963,00111100,4,100,12.1
61440,72508,2007/08/18 21:00:37,42.6776,6.1092,21.16,-0.0860797,-0.120831,00111100,5,100,12.1
61440,72508,2007/08/18 22:00:16,42.6745,6.1065,21.16,-0.0839795,-0.130674,00111100,4,100,12.1
61440,72508,2007/08/18 23:00:17,42.6713,6.1041,21.08,-0.0741924,-0.134058,00111100,4,100,12.1
61440,72508,2007/08/19 00:00:40,42.6676,6.1015,21.08,-0.079887,-0.154055,00111100,1,100,12.1
61440,72508,2007/08/19 01:00:10,42.6643,6.0992,21.08,-0.0717184,-0.139432,00111100,1,100,12
61440,72508,2007/08/19 02:00:16,42.6611,6.0963,21,-0.0895248,-0.13385,00111100,3,100,12.1
61440,72508,2007/08/19 03:00:16,42.6590,6.0942,21.08,-0.0649364,-0.0879816,00111100,4,100,12.1
61440,72508,2007/08/19 04:00:40,42.6566,6.0932,21.08,-0.0307173,-0.0998809,00111100,5,100,12.1
61440,72508,2007/08/19 05:00:16,42.6542,6.0926,21.16,-0.0186778,-0.101218,00111100,1,100,12.1
61440,72508,2007/08/19 06:00:12,42.6510,6.0924,21.24,-0.0061913,-0.1342,00111100,3,100,12.1
61440,72508,2007/08/19 07:00:40,42.6473,6.0923,21.32,-0.00306834,-0.153792,00111100,3,100,12.1
61440,72508,2007/08/19 08:00:11,42.6434,6.0912,21.32,-0.0342905,-0.164682,00111100,3,100,12.1
61440,72508,2007/08/19 09:00:28,42.6397,6.0897,21.32,-0.0461651,-0.15424,00111100,4,100,12.1
61440,72508,2007/08/19 10:00:40,42.6371,6.0884,21.32,-0.0400652,-0.10853,00111100,5,100,12.1
61440,72508,2007/08/19 11:00:10,42.6339,6.0878,21.4,-0.0187092,-0.13514,00111100,1,100,12.1
61440,72508,2007/08/19 12:00:12,42.6307,6.0862,21.4,-0.0494479,-0.133933,00111100,3,100,12
61440,72508,2007/08/19 13:00:39,42.6279,6.0842,21.32,-0.0613838,-0.116378,00111100,1,100,12.1
61440,72508,2007/08/19 15:00:58,42.6232,6.0810,21.4,-0.0493451,-0.0981416,00111100,4,100,12.1
61440,72508,2007/08/19 16:00:22,42.6208,6.0801,21.4,-0.028111,-0.101504,00111100,4,100,12.1
61440,72508,2007/08/19 17:00:39,42.6187,6.0789,21.48,-0.0369321,-0.087511,00111100,1,100,12.1
61440,72508,2007/08/19 18:01:28,42.6166,6.0790,21.48,0.00305068,-0.0867406,00111100,1,98,12.1
61440,72508,2007/08/19 19:00:16,42.6155,6.0793,21.56,0.00946594,-0.0469926,00111100,1,100,12
61440,72508,2007/08/19 20:00:29,42.6137,6.0795,21.56,0.00616216,-0.0750862,00111100,4,100,12.1
61440,72508,2007/08/19 21:02:09,42.6112,6.0811,21.56,0.0481382,-0.101831,00111100,3,100,12.1
61440,72508,2007/08/19 22:00:11,42.6091,6.0831,21.64,0.06394,-0.0908897,00111100,1,100,12.1
61440,72508,2007/08/19 23:00:15,42.6062,6.0856,21.64,0.0772194,-0.121261,00111100,1,100,12
61440,72508,2007/08/20 00:02:28,42.6028,6.0888,21.64,0.0954252,-0.137248,00111100,3,100,12.1
61440,72508,2007/08/20 01:00:16,42.5990,6.0906,21.64,0.0577783,-0.165106,00111100,1,100,12.1
61440,72508,2007/08/20 02:00:37,42.5951,6.0923,21.64,0.0522627,-0.162281,00111100,7,100,12.1
61440,72508,2007/08/20 03:01:35,42.5914,6.0922,21.56,-0.00304318,-0.152393,00111100,1,100,12.1
61440,72508,2007/08/20 04:00:16,42.5883,6.0914,21.48,-0.0252927,-0.132641,00111100,1,100,12.1
61440,72508,2007/08/20 06:02:41,42.5832,6.0903,21.32,-0.0166714,-0.1046,00111100,3,100,12
61440,72508,2007/08/20 07:00:15,42.5806,6.0901,21.24,-0.00644583,-0.113391,00111100,3,100,12.1
61440,72508,2007/08/20 08:00:09,42.5780,6.0893,21.24,-0.024779,-0.108969,00111100,5,100,12.1
61440,72508,2007/08/20 09:00:00,42.5792,6.0924,21.16,0.0960987,0.0494959,00111100,1,100,12.1
61440,72508,2007/08/20 10:01:10,42.5729,6.0875,21.16,-0.148628,-0.257738,00111100,1,100,12
61440,72508,2007/08/20 11:00:16,42.5708,6.0881,21.24,0.0188358,-0.0891941,00111100,1,100,12.1
61440,72508,2007/08/20 12:00:17,42.5689,6.0896,21.32,0.0463702,-0.0794643,00111100,3,100,12.1
61440,72508,2007/08/20 13:01:26,42.5666,6.0920,21.32,0.0728173,-0.0944076,00111100,1,100,12
61440,72508,2007/08/20 15:01:41,42.5618,6.0943,21.4,0.0354865,-0.100186,00111100,1,100,12.1
61440,72508,2007/08/20 16:00:10,42.5593,6.0954,21.4,0.0348964,-0.107284,00111100,3,100,12
61440,72508,2007/08/20 18:00:34,-59.8552,-108.3418,12.84,-1763.44,-1875.25,00144400,1,95,21.6
61440,72508,2007/08/20 19:00:09,42.5527,6.0942,21.4,3563.34,3789.04,00144400,1,100,12
61440,72508,2007/08/20 20:01:34,42.5514,6.0936,21.4,-0.0181253,-0.0531157,00111100,3,100,12
61440,72508,2007/08/20 21:00:16,42.5506,6.0934,21.32,-0.00632138,-0.0341987,00111100,4,100,12
61440,72508,2007/08/20 23:01:11,42.5509,6.0926,21.32,-0.0122751,0.00622575,00111100,3,100,12
61440,72508,2007/08/21 00:00:40,42.5517,6.0925,21.32,-0.00311907,0.0337485,00111100,3,100,12
61440,72508,2007/08/21 01:00:15,42.5527,6.0930,21.32,0.0155692,0.0421155,00111100,4,100,12
61440,72508,2007/08/21 02:00:39,42.5532,6.0943,21.32,0.0399325,0.0207733,00111100,3,92,12
61440,72508,2007/08/21 03:00:25,42.5530,6.0955,21.08,0.0372514,-0.00839738,00111100,4,73,12
61440,72508,2007/08/21 04:01:04,42.5529,6.0957,20.92,0.00611814,-0.00413753,00111100,5,82,12
61440,72508,2007/08/21 05:00:11,42.5527,6.0956,20.92,-0.00313841,-0.00848967,00111100,4,100,12
61440,72508,2007/08/21 06:00:16,42.5528,6.0948,20.84,-0.0247034,0.00417654,00111100,4,68,12
61440,72508,2007/08/21 07:00:11,42.5532,6.0942,20.84,-0.0185791,0.0167527,00111100,6,85,12
61440,72508,2007/08/21 08:00:40,42.5539,6.0939,20.92,-0.00920249,0.0290428,00111100,3,100,12
61440,72508,2007/08/21 09:00:11,42.5543,6.0943,20.92,0.0124693,0.0168656,00111100,1,100,12
61440,72508,2007/08/21 11:00:24,42.5541,6.0936,21.32,-0.0108032,-0.0041749,00111100,3,100,12
61440,72508,2007/08/21 12:00:58,42.5544,6.0933,21.56,-0.00918983,0.0124299,00111100,1,100,12
61440,72508,2007/08/21 13:00:10,42.5549,6.0927,21.64,-0.018804,0.0211949,00111100,1,100,12
61440,72508,2007/08/21 14:00:16,42.5553,6.0928,21.64,0.00308706,0.0167021,00111100,4,100,12
61440,72508,2007/08/21 15:00:40,42.5555,6.0925,21.72,-0.00921519,0.00830964,00111100,4,100,12
61440,72508,2007/08/21 16:00:16,42.5555,6.0924,21.56,-0.00311296,0,00111100,1,100,12
61440,72508,2007/08/21 17:00:40,42.5557,6.0922,21.32,-0.00614346,0.00830966,00111100,1,100,12
61440,72508,2007/08/21 18:00:19,42.5558,6.0915,21.24,-0.0217725,0.00420708,00111100,4,100,12
61440,72508,2007/08/21 19:00:39,42.5554,6.0898,21.24,-0.0522771,-0.0166377,00111100,3,100,12
61440,72508,2007/08/21 20:00:07,42.5562,6.0877,21.24,-0.0655188,0.0337604,00111100,1,100,12
61440,72508,2007/08/21 21:00:16,42.5576,6.0859,21.24,-0.0555209,0.0584106,00111100,1,100,12
61440,72508,2007/08/21 22:00:40,42.5583,6.0851,21.24,-0.0245738,0.0290849,00111100,1,100,12
61440,72508,2007/08/21 23:00:16,42.5584,6.0851,21.24,0,0.00421079,00111100,1,100,12
61440,72508,2007/08/22 00:01:40,42.5583,6.0846,21.08,-0.0151085,-0.00408734,00111100,1,100,12
61440,72508,2007/08/22 01:00:10,42.5585,6.0835,21.08,-0.0348865,0.00857994,00111100,1,100,12
61440,72508,2007/08/22 02:00:16,42.5588,6.0829,21.08,-0.0185224,0.0125273,00111100,1,100,12
61440,72508,2007/08/22 03:00:40,42.5591,6.0821,21.08,-0.0245738,0.0124652,00111100,4,100,12
61440,72508,2007/08/22 04:00:17,42.5589,6.0814,21,-0.0217846,-0.00841931,00111100,4,100,12
61440,72508,2007/08/22 05:00:16,42.5588,6.0795,20.92,-0.0587683,-0.00418391,00111100,1,100,12
61440,72508,2007/08/22 06:00:40,42.5589,6.0781,20.92,-0.0430042,0.00415505,00111100,1,100,12
61440,72508,2007/08/22 08:00:28,42.5584,6.0748,21,-0.0511066,-0.0104743,00111100,1,100,12
61440,72508,2007/08/22 09:00:58,42.5576,6.0737,21,-0.0337332,-0.033185,00111100,1,100,12
61440,72508,2007/08/22 10:00:21,42.5569,6.0720,21,-0.0531134,-0.0295825,00111100,3,100,12
61440,72508,2007/08/22 11:00:10,42.5564,6.0701,20.92,-0.058932,-0.0209771,00111100,1,100,12
61440,72508,2007/08/22 12:00:40,42.5561,6.0673,21,-0.0858663,-0.012444,00111100,1,98,12
61440,72508,2007/08/22 13:00:16,42.5559,6.0647,20.92,-0.080937,-0.00842126,00111100,1,100,12
61440,72508,2007/08/22 14:00:16,42.5559,6.0619,20.92,-0.0865818,0,00111100,1,100,12
61440,72508,2007/08/22 15:00:40,42.5558,6.0589,20.92,-0.0921519,-0.00415485,00111100,6,100,12
61440,72508,2007/08/22 16:00:22,42.5565,6.0555,21,-0.105663,0.0294251,00111100,1,100,12
61440,72508,2007/08/22 17:00:16,42.5576,6.0532,20.92,-0.0712395,0.0460857,00111100,1,100,11.9
61440,72508,2007/08/22 18:00:40,42.5588,6.0511,20.92,-0.0645063,0.0498601,00111100,3,100,12
61440,72508,2007/08/22 19:00:10,42.5600,6.0494,20.92,-0.0530093,0.0506152,00111100,1,100,12
61440,72508,2007/08/22 20:00:16,42.5608,6.0486,20.92,-0.0246965,0.0334072,00111100,3,100,12
61440,72508,2007/08/22 21:00:39,42.5606,6.0484,20.92,-0.00614516,-0.00831264,00111100,1,100,12
61440,72508,2007/08/22 22:00:11,42.5599,6.0482,20.92,-0.00623289,-0.0295094,00111100,1,100,12
61440,72508,2007/08/22 23:00:07,42.5583,6.0475,20.92,-0.0216695,-0.0669987,00111100,1,100,12
61440,72508,2007/08/23 00:00:40,42.5562,6.0448,20.92,-0.0827312,-0.0870376,00111100,1,100,12
61440,72508,2007/08/23 02:00:10,42.5529,6.0386,20.84,-0.0962595,-0.0692993,00111100,3,100,12
61440,72508,2007/08/23 03:00:40,42.5523,6.0344,20.76,-0.128799,-0.0248866,00111100,3,100,12
61440,72508,2007/08/23 04:00:16,42.5520,6.0304,20.76,-0.124518,-0.0126311,00111100,4,100,11.9
61440,72508,2007/08/23 05:00:11,42.5522,6.0267,20.6,-0.114571,0.00837622,00111100,3,100,12
61440,72508,2007/08/23 06:00:40,42.5527,6.0235,20.52,-0.0981599,0.0207445,00111100,3,100,12
61440,72508,2007/08/23 07:00:10,42.5529,6.0217,20.52,-0.0561275,0.00843497,00111100,1,100,12
61440,72508,2007/08/23 08:00:16,42.5530,6.0187,20.52,-0.0926119,0.00417539,00111100,1,100,12
61440,72508,2007/08/23 09:00:40,42.5528,6.0167,20.68,-0.0614346,-0.0083093,00111100,1,100,12
61440,72508,2007/08/23 10:00:11,42.5526,6.0143,20.92,-0.0748157,-0.0084326,00111100,1,100,12
61440,72508,2007/08/23 11:00:16,42.5523,6.0120,20.92,-0.0710221,-0.0125296,00111100,3,79,12
61440,72508,2007/08/23 12:00:40,42.5519,6.0107,21.56,-0.0399325,-0.0166184,00111100,3,26,12
61440,72508,2007/08/23 13:00:11,42.5515,6.0102,22.36,-0.0155866,-0.0168649,00111100,6,31,12
61440,72508,2007/08/23 14:00:39,42.5495,6.0089,22.52,-0.0398885,-0.0829982,00111100,3,15,12
61440,72508,2007/08/23 15:00:17,42.5484,6.0065,22.36,-0.0746693,-0.0462858,00111100,4,9,11.9
61440,72508,2007/08/23 16:00:11,42.5470,6.0040,22.12,-0.0774343,-0.0586457,00111100,3,0,12
61440,72508,2007/08/23 17:00:40,42.5458,6.0016,22.12,-0.0736199,-0.0497819,00111100,3,6,12
61440,72508,2007/08/23 18:00:16,42.5445,5.9988,21.32,-0.0871629,-0.0547286,00111100,1,0,12
61440,72508,2007/08/23 20:00:41,42.5411,5.9917,20.92,-0.109394,-0.0708423,00111100,3,0,12
61440,72508,2007/08/23 21:00:40,42.5398,5.9873,20.92,-0.136095,-0.0543747,00111100,3,1,12
61440,72508,2007/08/23 22:00:15,42.5391,5.9830,20.92,-0.133895,-0.0294748,00111100,1,0,12
61440,72508,2007/08/23 23:00:11,42.5382,5.9793,21,-0.114539,-0.0376743,00111100,4,0,12
61440,72508,2007/08/24 00:00:40,42.5377,5.9747,21.08,-0.141105,-0.0207396,00111100,5,0,12
61440,72508,2007/08/24 01:00:16,42.5372,5.9711,21,-0.112067,-0.0210468,00111100,3,0,12
61440,72508,2007/08/24 02:00:15,42.5370,5.9680,20.92,-0.0958851,-0.00836489,00111100,3,0,11.9
61440,72508,2007/08/24 03:00:16,42.5362,5.9657,20.92,-0.071101,-0.0334407,00111100,3,31,12
61440,72508,2007/08/24 04:00:40,42.5350,5.9632,20.84,-0.0767932,-0.0498419,00111100,4,14,12
61440,72508,2007/08/24 05:00:10,42.5336,5.9603,20.76,-0.0904276,-0.0590272,00111100,3,3,12
61440,72508,2007/08/24 06:00:10,42.5325,5.9583,20.76,-0.0618442,-0.0459911,00111100,3,0,12